GW3653 Weather Reports


time (UTC)temp
C
wind
direction
speed
KPH
gust
KPH
rain 1hr
cm
rain 24hr
cm
rain mn
cm
humidity
%
barometer
mb
20260503204518 12 0.0 0.0 0.00 0.08 0.03 95 1028.6
20260503203518 12 0.0 0.0 0.00 0.08 0.03 95 1028.6
20260503202518 11 0.0 0.0 0.00 0.08 0.03 95 1028.6
20260503201519 11 0.0 0.0 0.00 0.08 0.03 94 1028.5
20260503200518 11 0.0 0.0 0.00 0.08 0.03 94 1028.4
20260503195518 11 0.0 0.0 0.00 0.08 0.03 94 1028.5
20260503194538 12 0.0 0.0 0.00 0.08 0.03 94 1028.4
20260503193518 12 0.0 0.0 0.03 0.08 0.03 94 1028.2
20260503192518 12 0.0 1.6 0.03 0.08 0.03 94 1028.2
20260503191518 12 0.0 0.0 0.03 0.10 0.03 94 1028.2
20260503190538 12 0.0 1.6 0.03 0.10 0.03 94 1028.3
20260503185538 12 0.0 0.0 0.03 0.10 0.03 94 1028.4
20260503184518 12 0.0 0.0 0.03 0.10 0.03 95 1028.4
20260503183518 12 0.0 0.0 0.00 0.08 0.00 95 1028.4
20260503182518 11 0.0 0.0 0.00 0.08 0.00 94 1028.5
20260503181518 11 0.0 0.0 0.00 0.08 0.00 94 1028.5
20260503180518 11 0.0 0.0 0.00 0.08 0.00 94 1028.4
20260503175518 11 0.0 0.0 0.00 0.10 0.00 94 1028.5
20260503174518 12 0.0 0.0 0.00 0.10 0.00 94 1028.5
20260503173518 12 0.0 0.0 0.00 0.10 0.00 94 1028.5
20260503172538 12 0.0 1.6 0.00 0.10 0.00 94 1028.6
20260503171518 12 0.0 0.0 0.00 0.10 0.00 94 1028.6
20260503170518 12 0.0 1.6 0.00 0.10 0.00 94 1028.6
20260503150538 12 0.0 0.0 0.03 0.15 0.13 93 1028.5
20260503130518 12 0.0 0.0 0.00 0.18 0.10 92 1028.6
20260503110517 13 0.0 0.0 0.00 0.30 0.10 91 1028.0
20260503081517 16 225 1.6 6.4 0.00 0.43 0.10 81 1026.9
20260503080537 16 225 1.6 6.4 0.00 0.43 0.10 81 1026.9
20260503072517 16 0.0 3.2 0.00 0.43 0.10 82 1026.8
20260503071517 16 113 1.6 6.4 0.00 0.43 0.10 81 1026.9
20260503070517 16 0.0 4.8 0.00 0.46 0.10 80 1026.8
20260503054519 17 225 1.6 8.0 0.00 0.46 0.10 79 1026.6
20260503053519 17 203 3.2 9.7 0.00 0.46 0.10 78 1026.6
20260503052519 17 113 1.6 4.8 0.00 0.46 0.10 76 1026.6
20260503051519 17 0.0 3.2 0.00 0.46 0.10 77 1026.6
20260503050519 17 180 1.6 4.8 0.00 0.46 0.10 78 1026.6
20260503045519 17 113 1.6 9.7 0.00 0.46 0.10 78 1026.7
20260503044519 17 0.0 3.2 0.00 0.46 0.10 78 1026.8
20260503043539 17 225 1.6 6.4 0.00 0.46 0.10 79 1026.9
20260503042519 17 113 1.6 4.8 0.00 0.46 0.10 79 1027.1
20260503041519 17 90 1.6 8.0 0.00 0.46 0.10 79 1027.1
20260503040519 16 113 3.2 11.3 0.00 0.46 0.10 80 1027.2
20260503035539 17 113 1.6 8.0 0.00 0.46 0.10 81 1027.2
20260503034519 16 135 1.6 8.0 0.00 0.48 0.10 84 1027.3
20260503033519 16 90 1.6 8.0 0.00 0.51 0.10 87 1027.4
20260503032539 16 113 3.2 8.0 0.00 0.53 0.10 86 1027.4
20260503031518 16 113 3.2 8.0 0.00 0.53 0.10 85 1027.4
20260503030519 16 113 1.6 8.0 0.00 0.53 0.10 88 1027.3
20260503025518 16 113 1.6 4.8 0.00 0.58 0.10 89 1027.5
20260503024519 15 113 1.6 4.8 0.00 0.58 0.10 91 1027.5
20260503023518 15 135 1.6 3.2 0.00 0.58 0.10 92 1027.6
20260503022518 15 135 3.2 11.3 0.00 0.58 0.10 96 1027.6
20260503021518 14 113 1.6 4.8 0.00 0.58 0.10 95 1027.6
20260503020518 14 113 3.2 12.9 0.00 0.61 0.10 95 1027.6
20260503015519 14 180 1.6 4.8 0.00 0.61 0.10 96 1027.5
20260503014518 13 0.0 3.2 0.00 0.61 0.10 95 1027.5
20260503013518 13 113 1.6 8.0 0.00 0.61 0.10 96 1027.6
20260503012518 14 0.0 4.8 0.00 0.61 0.10 96 1027.6
20260503011519 13 0.0 3.2 0.00 0.61 0.10 96 1027.5
20260503010538 14 90 1.6 4.8 0.00 0.64 0.10 96 1027.5
20260503005518 14 0.0 3.2 0.00 0.66 0.10 96 1027.3
20260503004518 13 0.0 6.4 0.00 0.66 0.10 96 1027.2
20260503003519 13 0.0 1.6 0.00 0.66 0.10 97 1027.0
20260503002518 13 0.0 1.6 0.03 0.76 0.10 96 1026.9
20260503001538 13 0.0 1.6 0.05 0.76 0.10 96 1026.9
20260503000518 13 0.0 1.6 0.05 0.76 0.10 96 1026.9
20260502235518 13 0.0 1.6 0.05 0.76 0.10 96 1026.8
20260502234518 13 113 1.6 9.7 0.05 0.76 0.10 96 1026.8
20260502233539 13 0.0 1.6 0.05 0.76 0.10 96 1026.5
20260502232518 13 0.0 0.0 0.03 0.74 0.08 96 1026.6
20260502231520 13 0.0 3.2 0.00 0.71 0.05 96 1026.4
20260502230538 13 0.0 1.6 0.00 0.71 0.05 96 1026.5
20260502225518 13 0.0 1.6 0.00 0.71 0.05 96 1026.4
20260502224518 13 0.0 1.6 0.00 0.71 0.05 96 1026.1
20260502223518 12 0.0 1.6 0.00 0.71 0.05 96 1026.1
20260502222518 12 0.0 1.6 0.00 0.71 0.05 96 1025.9
20260502221518 12 0.0 3.2 0.00 0.71 0.05 96 1025.9
20260502220518 12 0.0 1.6 0.00 0.71 0.05 96 1025.8
20260502215518 12 0.0 1.6 0.00 0.71 0.05 96 1025.7
20260502214518 12 0.0 1.6 0.00 0.71 0.05 96 1025.7
20260502213519 12 0.0 3.2 0.00 0.71 0.05 96 1025.6
20260502212518 12 0.0 1.6 0.00 0.71 0.05 96 1025.5
20260502211518 12 158 1.6 4.8 0.00 0.71 0.05 96 1025.5
20260502210518 12 0.0 8.0 0.00 0.71 0.05 96 1025.6
20260502205518 12 0.0 4.8 0.00 0.76 0.05 96 1025.3